Temp
18 19 19 21 21 23 23 23 25 25 26 26 26 26 23 20 20 20 19 19 19 18 18 18 17 17 18 19 20 20 20 20 20 20 20 19 19 19 19 20 20 19 19 19
18 19 21 21 20 21 22 22 23 25 25 26 27 26 25 22 21 20 20 19 19 19 19 18 18 17 17 19 20 20 20 20 20 20 20 20 20 20 20 20 20 20 19 19
19 21 20 20 20 20 21 22 22 24 25 26 25 25 24 22 21 21 20 20 19 19 19 18 18 18 18 19 20 21 21 21 20 20 20 20 20 19 19 20 20 20 20 19
20 21 20 20 20 21 21 22 22 22 23 25 26 25 24 24 22 22 21 20 20 20 19 19 19 18 18 19 20 20 21 21 20 20 20 20 20 20 20 20 19 19 20 20
20 20 20 20 21 21 22 22 22 22 23 23 25 24 28 25 24 23 23 22 21 21 20 20 19 19 19 19 20 20 20 20 21 20 20 20 20 20 20 20 19 19 19 19
21 20 22 22 22 21 23 22 22 23 23 22 24 24 26 26 25 25 24 22 22 21 21 20 20 19 19 19 20 20 20 20 20 20 20 20 20 20 20 20 20 19 19 19
18 20 22 22 22 22 22 22 21 20 21 22 25 24 25 27 27 28 26 24 22 22 21 21 20 20 19 19 19 20 20 20 20 20 20 20 20 20 20 20 20 20 20 20
16 19 20 19 21 22 21 23 22 21 22 23 25 23 25 28 28 26 26 26 24 22 22 21 20 20 19 19 19 21 21 20 21 20 20 20 20 20 20 20 20 20 20 21
15 17 16 16 18 21 21 22 24 22 21 23 25 25 26 26 28 28 28 26 25 23 22 21 21 21 20 20 20 20 21 21 21 21 21 21 21 21 21 21 21 20 20 20
12 15 15 16 16 18 21 23 21 22 20 21 23 24 26 26 27 28 27 27 26 25 23 22 21 21 21 22 23 22 22 22 21 21 21 21 21 21 21 21 21 21 20 20
12 12 16 15 18 20 19 21 21 22 23 22 22 24 27 27 28 28 30 28 27 26 24 23 22 21 21 21 21 22 23 22 22 22 22 22 22 22 22 21 21 21 21 20
11 11 13 16 16 15 14 18 20 21 21 22 23 24 27 27 28 27 27 27 27 26 26 24 23 22 21 20 21 23 23 23 23 23 23 23 23 22 22 22 22 22 21 21
11 10 12 16 15 15 15 14 15 16 17 21 22 23 27 27 28 27 26 27 26 24 25 24 23 23 21 21 20 21 23 24 24 23 23 23 23 23 23 23 22 22 22 21
10 10 11 14 12 12 12 13 14 15 19 21 22 23 25 26 27 26 25 24 24 23 24 24 24 23 22 21 21 21 22 23 24 24 24 24 24 23 23 23 23 23 23 22
9 9 10 11 11 11 11 12 13 13 16 18 22 22 24 24 21 20 20 20 21 22 22 23 23 23 23 22 21 21 21 21 23 24 24 24 24 24 24 24 23 23 23 23
7 9 9 10 11 12 11 12 13 14 15 16 17 18 20 18 18 18 17 17 18 19 20 20 23 23 23 23 23 23 22 22 23 24 24 24 25 25 24 24 24 24 24 23
7 9 8 10 11 11 12 14 14 15 15 17 17 19 15 19 18 16 16 16 16 16 17 18 19 22 24 25 25 24 24 24 23 24 25 25 25 25 25 24 24 24 24 24
7 5 7 9 10 11 14 13 17 15 13 13 14 14 13 16 17 16 14 14 15 15 15 16 18 20 22 24 22 23 21 24 23 24 25 25 25 25 25 24 24 24 24 24
7 7 8 8 9 12 12 8 9 11 12 12 12 12 11 13 15 17 14 13 13 13 14 16 20 23 23 23 23 24 22 21 24 24 25 26 27 26 25 24 25 25 24 24
6 7 7 8 8 10 7 7 7 9 12 11 10 10 10 15 19 17 12 12 13 13 14 16 20 23 23 23 22 23 22 22 25 26 26 26 26 26 25 25 25 26 25 25
4 5 5 7 7 9 5 5 6 10 10 6 9 9 9 12 11 11 11 13 13 12 14 14 17 20 22 23 23 23 23 25 26 25 25 26 26 26 27 27 26 26 25 25
6 5 5 6 7 8 4 5 6 5 5 6 7 8 8 10 10 10 11 13 13 14 14 15 16 19 19 21 23 24 25 24 25 25 25 25 26 25 25 26 25 25 25 24
5 4 6 6 8 6 4 4 4 4 5 6 6 7 7 9 9 9 11 12 12 13 15 15 15 17 19 19 20 20 22 23 24 24 25 25 25 25 25 25 25 24 23 23
3 2 4 4 5 4 4 4 4 5 4 5 6 6 7 7 8 10 10 12 12 12 14 15 16 16 16 17 19 20 21 22 22 23 24 24 24 24 24 24 24 24 23 23
2 2 3 4 4 3 4 4 4 5 5 6 6 7 7 7 8 9 10 11 11 12 13 14 15 16 16 16 17 18 19 20 20 21 21 22 22 23 23 23 24 24 23 22
2 3 3 4 3 4 4 4 4 4 4 5 5 6 7 7 8 8 10 10 11 12 12 13 14 15 16 16 17 17 17 18 18 19 19 18 19 25 23 22 23 23 24 24
Height
1489 1490 1483 1483 1489 1489 1490 1491 1487 1484 1480 1483 1484 1485 1492 1500 1504 1507 1510 1513 1516 1521 1528 1532 1536 1541 1545 1550 1554 1558 1562 1567 1571 1574 1577 1581 1584 1588 1590 1593 1595 1597 1598 1599
1489 1481 1481 1487 1492 1492 1491 1492 1490 1482 1482 1484 1480 1482 1486 1493 1495 1500 1504 1509 1513 1520 1523 1527 1532 1536 1540 1545 1550 1555 1559 1564 1568 1572 1576 1579 1583 1586 1589 1591 1594 1596 1597 1599
1479 1476 1481 1486 1490 1492 1490 1491 1491 1487 1481 1478 1482 1485 1486 1489 1494 1499 1502 1506 1512 1514 1518 1522 1526 1530 1535 1539 1543 1549 1555 1560 1565 1570 1574 1577 1580 1584 1587 1589 1592 1595 1597 1598
1478 1475 1479 1481 1483 1487 1489 1486 1490 1490 1492 1489 1475 1487 1479 1480 1486 1491 1494 1498 1502 1507 1513 1518 1522 1526 1529 1533 1540 1545 1551 1556 1561 1566 1570 1574 1577 1580 1584 1587 1591 1593 1595 1597
1471 1471 1474 1480 1477 1482 1482 1483 1487 1489 1492 1489 1481 1485 1461 1471 1478 1480 1484 1490 1494 1499 1504 1509 1512 1516 1521 1529 1534 1540 1546 1552 1557 1561 1566 1570 1574 1578 1581 1585 1588 1590 1593 1595
1463 1468 1467 1468 1471 1476 1478 1482 1483 1485 1488 1494 1480 1482 1465 1466 1467 1467 1474 1481 1486 1491 1496 1502 1506 1513 1518 1524 1529 1535 1539 1545 1551 1557 1562 1566 1570 1574 1577 1581 1584 1587 1589 1592
1470 1464 1464 1465 1468 1471 1476 1479 1491 1500 1494 1483 1465 1478 1465 1452 1456 1456 1462 1469 1476 1482 1488 1492 1498 1504 1510 1515 1520 1526 1532 1538 1544 1550 1556 1561 1565 1570 1573 1577 1580 1583 1585 1587
1478 1471 1463 1466 1463 1465 1471 1469 1473 1489 1480 1473 1464 1466 1452 1450 1452 1455 1458 1461 1467 1473 1478 1483 1487 1493 1499 1504 1509 1517 1524 1531 1538 1543 1549 1555 1560 1564 1569 1572 1575 1578 1580 1583
1481 1471 1470 1469 1467 1464 1465 1466 1459 1469 1472 1468 1450 1453 1443 1445 1446 1448 1452 1457 1458 1462 1467 1471 1478 1483 1488 1495 1501 1506 1514 1523 1530 1536 1543 1548 1554 1558 1562 1566 1570 1574 1576 1580
1491 1482 1472 1470 1468 1462 1458 1454 1472 1469 1481 1479 1455 1452 1443 1438 1442 1442 1446 1447 1448 1452 1458 1465 1471 1475 1479 1485 1492 1499 1507 1513 1521 1529 1535 1541 1547 1552 1557 1561 1565 1569 1572 1576
1492 1492 1471 1471 1463 1453 1462 1458 1457 1453 1454 1460 1464 1448 1427 1432 1432 1433 1434 1438 1441 1444 1448 1453 1458 1463 1469 1477 1485 1491 1499 1506 1513 1521 1528 1534 1539 1544 1550 1555 1559 1563 1568 1572
1495 1492 1483 1469 1466 1468 1471 1461 1453 1455 1457 1451 1447 1440 1425 1427 1430 1433 1433 1434 1436 1438 1439 1442 1449 1457 1465 1469 1475 1481 1489 1497 1505 1513 1520 1526 1532 1538 1543 1547 1552 1557 1561 1566
1497 1495 1483 1464 1468 1468 1468 1471 1469 1466 1463 1452 1453 1443 1427 1426 1426 1430 1432 1430 1432 1433 1437 1442 1448 1451 1454 1459 1466 1472 1479 1487 1496 1504 1511 1518 1524 1529 1535 1540 1545 1550 1555 1560
1497 1496 1489 1470 1478 1485 1479 1475 1473 1468 1454 1446 1441 1436 1428 1425 1424 1428 1430 1429 1428 1430 1432 1436 1440 1442 1446 1452 1457 1462 1470 1478 1486 1494 1501 1507 1514 1521 1527 1533 1538 1543 1548 1553
1498 1494 1491 1483 1484 1484 1481 1477 1472 1471 1461 1452 1437 1438 1430 1427 1433 1432 1432 1430 1427 1428 1430 1429 1432 1434 1438 1444 1450 1456 1463 1471 1478 1484 1491 1498 1506 1513 1520 1524 1530 1536 1541 1545
1500 1492 1493 1483 1478 1475 1472 1467 1466 1464 1459 1457 1452 1445 1436 1436 1432 1430 1430 1428 1427 1423 1421 1424 1426 1430 1432 1435 1439 1445 1452 1459 1468 1476 1483 1491 1499 1505 1510 1516 1522 1527 1533 1537
1498 1494 1493 1480 1478 1473 1462 1450 1450 1448 1451 1448 1445 1439 1443 1434 1434 1432 1429 1428 1425 1422 1421 1421 1421 1422 1422 1425 1429 1435 1441 1451 1459 1467 1476 1482 1489 1495 1501 1508 1513 1518 1523 1529
1496 1501 1499 1484 1480 1468 1444 1446 1429 1442 1453 1454 1450 1446 1446 1437 1436 1435 1433 1428 1421 1416 1413 1410 1410 1411 1414 1420 1426 1433 1440 1444 1451 1460 1469 1475 1480 1487 1493 1499 1503 1510 1515 1519
1492 1494 1490 1486 1478 1456 1450 1463 1461 1455 1454 1456 1451 1450 1447 1439 1436 1434 1433 1429 1423 1417 1411 1404 1401 1400 1407 1413 1418 1424 1432 1438 1447 1453 1461 1467 1474 1480 1485 1489 1495 1502 1507 1511
1487 1491 1490 1484 1481 1461 1466 1467 1466 1462 1448 1455 1453 1452 1447 1434 1426 1434 1432 1428 1423 1417 1409 1400 1395 1395 1399 1405 1412 1417 1424 1432 1439 1445 1453 1461 1468 1473 1478 1484 1490 1496 1500 1504
1487 1490 1488 1486 1483 1465 1472 1469 1464 1454 1455 1459 1455 1454 1449 1442 1445 1441 1434 1428 1423 1416 1407 1402 1395 1396 1399 1402 1407 1412 1419 1426 1434 1442 1448 1455 1462 1468 1474 1479 1484 1487 1492 1496
1479 1482 1485 1488 1481 1471 1473 1471 1468 1465 1461 1458 1455 1453 1449 1446 1443 1440 1435 1430 1422 1415 1409 1403 1397 1394 1399 1402 1406 1412 1417 1426 1432 1439 1445 1450 1456 1462 1467 1472 1476 1480 1484 1488
1480 1487 1479 1479 1466 1472 1472 1472 1469 1464 1460 1456 1454 1451 1449 1445 1442 1438 1435 1430 1426 1422 1413 1403 1402 1398 1399 1401 1407 1413 1417 1423 1429 1435 1440 1445 1450 1455 1460 1464 1468 1472 1476 1479
1485 1485 1482 1480 1473 1471 1467 1468 1465 1460 1458 1453 1451 1448 1446 1443 1440 1437 1435 1431 1429 1423 1417 1413 1410 1405 1403 1404 1408 1411 1415 1421 1427 1432 1436 1440 1444 1449 1453 1457 1461 1464 1468 1471
1489 1485 1480 1476 1474 1471 1467 1465 1460 1453 1451 1450 1447 1445 1443 1440 1437 1436 1434 1432 1430 1428 1422 1421 1416 1411 1409 1409 1411 1413 1416 1421 1426 1429 1432 1436 1441 1445 1450 1452 1455 1458 1461 1466
1487 1485 1481 1473 1472 1467 1463 1460 1456 1450 1447 1446 1444 1441 1439 1438 1435 1434 1432 1431 1431 1428 1425 1420 1419 1416 1415 1416 1417 1417 1420 1424 1425 1427 1432 1437 1443 1440 1446 1448 1449 1452 1455 1459
Wind_Speed
10 13 21 21 15 10 7 5 12 7 8 13 16 15 13 19 19 23 26 29 31 35 31 30 29 30 32 34 34 33 31 29 28 28 27 25 22 17 14 12 11 7 6 4
6 19 17 15 11 15 12 6 8 9 5 9 12 17 12 19 26 29 29 29 31 29 32 32 31 31 34 37 36 35 34 31 31 29 28 27 23 19 14 13 12 10 9 6
12 2 16 16 14 15 18 18 9 6 4 9 5 11 12 16 17 22 25 26 27 31 34 34 34 34 32 39 39 39 36 34 32 33 29 27 24 21 17 15 13 11 10 8
12 14 13 18 23 18 19 15 14 11 5 9 10 11 10 15 19 19 27 29 31 32 32 33 35 34 35 40 42 38 37 35 34 33 34 30 27 25 23 18 15 13 10 8
9 10 15 16 19 18 13 8 16 18 13 11 12 7 14 14 16 21 27 32 33 33 35 36 38 39 38 37 42 42 40 35 35 36 34 30 29 24 21 20 17 18 16 14
12 2 11 13 14 18 11 5 11 12 13 17 19 12 14 13 18 18 23 31 34 35 36 35 36 34 35 35 40 43 42 40 37 37 36 34 31 27 24 22 20 22 22 20
2 12 6 6 11 17 16 13 5 8 11 17 16 15 17 8 17 18 19 30 35 37 38 38 37 36 36 38 39 46 45 44 41 40 40 38 34 32 29 26 22 22 24 25
3 8 10 4 10 10 21 18 8 12 12 15 16 12 15 23 17 12 18 24 29 35 38 40 41 40 41 44 47 49 48 46 45 42 41 39 36 34 31 31 28 22 21 21
2 4 3 3 1 7 11 21 19 9 2 9 14 17 16 7 17 21 21 18 25 32 37 41 41 42 43 45 47 48 50 47 46 46 42 40 38 36 33 31 29 28 22 19
2 5 1 3 5 11 9 7 16 13 19 13 8 17 13 20 20 14 11 20 24 28 32 35 38 42 45 47 45 44 45 46 46 46 45 43 41 38 35 33 31 31 26 21
1 2 2 4 5 7 8 10 8 9 17 15 10 9 5 17 15 20 24 27 24 25 29 35 39 43 47 45 46 46 45 43 45 44 43 42 41 39 38 36 32 31 29 25
1 1 5 5 2 8 6 5 10 11 13 15 16 17 2 8 7 6 11 18 23 25 27 33 37 36 38 44 45 51 49 47 45 43 43 43 41 39 38 37 33 30 30 28
2 1 4 6 4 4 2 2 0 2 1 13 13 13 9 18 18 14 15 15 10 18 22 23 26 36 42 46 47 51 52 51 48 47 46 44 43 42 40 37 35 31 29 29
2 3 8 8 9 8 5 3 2 4 10 16 16 14 9 10 14 13 11 9 7 6 16 22 27 35 40 44 48 50 51 49 50 51 50 47 46 43 40 37 35 33 30 29
2 5 8 15 14 15 16 18 15 12 9 10 15 16 14 12 13 16 11 10 12 10 9 15 26 35 42 42 45 48 48 49 47 49 49 48 43 40 40 40 36 32 32 30
1 3 5 15 10 11 17 18 18 17 18 12 16 16 7 14 12 12 11 13 11 14 14 14 19 29 39 44 49 50 50 49 46 47 45 43 41 40 39 39 38 36 32 32
3 2 3 8 9 14 11 16 19 13 8 15 13 10 10 9 6 12 17 14 14 16 17 16 17 27 39 39 42 47 50 48 48 45 41 40 38 38 37 37 37 37 36 34
6 4 2 6 10 7 5 12 10 12 5 3 6 7 9 3 7 11 14 17 18 19 21 23 21 22 36 39 36 41 41 48 48 46 41 38 38 36 35 35 36 36 37 36
17 8 4 4 6 16 9 7 6 3 5 6 5 8 12 11 10 3 18 19 16 16 21 24 24 25 30 37 42 42 43 46 44 44 43 38 36 35 35 36 35 33 34 34
15 14 7 6 6 7 5 11 13 6 6 8 10 10 12 8 7 4 22 21 18 13 14 15 16 16 26 38 37 44 44 42 40 40 41 38 37 35 33 30 28 28 29 31
7 9 14 11 8 8 6 17 17 6 3 17 11 12 12 6 6 14 16 18 21 16 12 5 5 13 24 36 37 41 39 37 34 36 39 38 33 28 27 28 30 31 32 32
5 9 6 6 6 13 9 6 5 6 16 14 14 13 13 10 10 12 15 19 25 28 19 16 12 16 16 28 32 32 30 31 31 28 30 30 30 30 29 29 29 29 28 29
3 3 2 4 2 6 7 10 12 13 16 17 17 15 13 12 12 14 16 19 22 26 29 29 23 18 20 21 21 22 26 28 26 26 24 25 25 25 26 26 27 28 28 28
2 1 2 3 2 12 16 12 11 15 19 18 16 15 13 12 12 14 15 16 19 24 30 31 32 32 29 21 17 16 18 18 20 22 23 25 26 26 26 25 25 25 27 27
2 7 4 4 7 15 8 13 14 14 16 13 12 12 11 10 13 14 15 14 14 17 22 25 31 33 32 27 24 19 15 14 17 19 19 21 23 21 22 24 24 26 26 25
8 3 3 3 11 10 10 16 12 13 16 16 13 12 10 9 12 15 15 13 12 14 16 19 21 24 26 27 24 21 17 15 15 15 13 11 10 21 25 25 25 25 26 26
Wind_Direction
181 194 211 206 215 222 218 224 222 212 210 204 219 226 192 182 186 186 188 190 194 198 197 199 199 200 203 204 204 202 198 193 191 191 193 197 201 201 206 208 199 207 185 177
172 220 218 217 218 221 227 227 221 243 234 220 228 234 206 184 198 195 190 196 199 196 197 200 202 202 207 207 206 206 203 199 196 195 197 203 205 206 205 208 213 212 202 205
203 201 193 201 205 215 228 230 218 247 284 240 224 241 201 204 203 200 205 204 203 202 200 201 202 204 205 208 207 206 207 205 203 203 203 206 212 216 216 210 215 218 223 221
227 224 187 201 211 208 227 222 238 250 273 234 214 241 205 196 202 203 203 203 205 206 207 206 206 206 207 211 210 209 208 210 209 208 212 215 216 220 219 218 221 232 241 234
200 194 193 206 217 205 235 225 226 237 249 270 242 246 234 195 206 212 209 209 209 208 206 207 207 209 209 210 212 212 210 210 210 212 213 214 217 223 227 228 231 241 250 250
224 232 204 205 211 197 208 233 224 228 236 244 237 237 241 207 209 218 214 213 212 210 209 210 211 209 209 210 213 214 212 212 214 215 216 218 222 227 232 234 235 242 248 251
270 213 190 212 202 206 207 208 197 209 215 235 217 230 233 226 213 219 207 212 212 212 210 208 208 207 208 208 213 218 217 217 216 218 220 223 227 232 236 240 242 245 249 247
245 196 213 134 227 216 202 205 206 214 218 228 214 233 226 225 229 232 229 220 213 212 213 211 208 208 208 212 217 223 222 219 219 219 221 224 228 233 237 240 243 247 253 254
294 243 332 257 344 202 188 217 224 266 272 241 223 239 255 226 236 232 229 225 218 213 212 212 209 209 210 215 217 223 226 222 221 222 223 225 227 231 235 237 239 244 248 252
96 285 124 299 291 234 229 203 202 226 237 234 210 233 230 204 227 221 211 219 224 218 212 213 212 211 211 217 222 223 225 224 222 223 225 229 230 231 234 239 240 242 244 247
82 271 202 265 199 235 191 210 218 242 228 228 236 234 214 222 223 227 228 224 225 214 210 209 211 211 212 214 215 220 222 222 221 219 220 224 228 232 236 238 239 242 243 243
81 233 265 261 340 305 292 278 249 228 206 236 250 236 245 233 241 225 248 245 242 232 219 210 210 208 207 207 208 217 220 220 219 217 223 226 228 228 230 233 234 237 239 240
183 231 270 238 180 106 79 94 178 264 171 233 225 241 239 264 267 257 268 270 264 241 226 217 209 208 206 206 209 214 219 222 220 221 222 226 228 231 230 232 234 234 236 237
181 252 263 273 341 344 294 257 231 270 225 227 233 260 256 234 271 316 313 296 304 256 222 215 212 210 209 208 210 215 218 218 221 223 224 225 228 230 232 232 233 233 233 235
235 257 281 285 289 285 273 266 257 249 259 236 228 241 259 287 320 320 317 314 307 298 272 231 220 213 214 210 211 215 217 217 217 221 224 225 226 228 230 232 231 231 233 233
185 248 297 292 298 290 271 261 250 242 249 250 262 277 283 315 317 333 340 332 317 306 300 275 243 223 213 214 216 217 217 219 219 218 220 221 223 225 228 230 231 232 232 234
214 231 275 266 333 312 272 249 233 229 216 219 223 229 327 297 350 358 343 336 325 310 298 281 258 229 226 221 221 218 220 219 222 219 216 216 217 221 225 228 230 233 234 235
171 156 242 291 313 245 48 5 221 164 139 232 265 300 309 342 96 36 8 345 330 321 307 290 271 249 225 221 214 215 209 216 219 219 217 215 216 219 221 224 227 229 233 234
216 193 244 258 269 291 292 28 0 4 110 46 10 329 321 311 254 346 8 359 339 319 305 292 273 251 223 210 208 218 211 211 216 220 218 215 214 216 219 221 224 229 234 237
196 218 219 230 262 258 55 340 337 299 179 23 14 358 350 330 193 34 343 352 1 335 316 296 279 224 205 200 194 210 210 212 212 216 218 218 219 219 222 224 226 229 233 236
160 193 223 231 251 284 359 327 323 217 44 331 342 345 1 30 346 317 343 19 25 22 18 360 117 161 188 190 195 205 211 215 215 213 216 218 219 219 219 220 223 228 232 236
166 181 195 219 246 258 19 335 302 319 319 316 315 324 336 343 341 344 8 25 34 39 55 56 88 133 151 178 199 205 210 215 217 216 217 220 223 223 226 228 232 234 234 237
107 287 276 242 273 334 299 283 280 315 311 307 306 309 320 327 340 347 5 23 32 40 54 72 77 110 134 151 170 186 198 210 212 214 214 218 218 218 222 224 227 231 232 233
329 321 226 284 272 299 282 228 302 318 300 298 297 294 306 315 336 352 9 26 27 35 49 60 70 78 86 104 149 177 189 203 209 215 214 214 213 214 218 221 223 227 231 230
295 304 291 269 266 308 193 294 315 330 326 307 312 294 295 317 340 348 357 12 16 21 41 50 58 65 67 79 91 109 137 168 189 198 209 205 205 211 220 221 226 229 233 235
343 4 325 276 307 306 287 326 329 336 320 310 311 317 305 309 333 343 351 351 345 4 16 32 44 52 59 65 71 82 99 121 133 144 142 140 197 227 223 227 225 227 229 235